Time,TemperatureF,DewpointF,PressureIn,WindDirection,WindDirectionDegrees,WindSpeedMPH,WindSpeedGustMPH,Humidity,HourlyPrecipIn,Conditions,Clouds,dailyrainin,SolarRadiationWatts/m^2,SoftwareType,DateUTC
2013-04-16 00:03:00,51.0,44.0,-100.00,West,265,12.0,22.0,76,0.00,,,0.00,0.000000,,2013-04-16 04:03:00,
2013-04-16 00:13:00,51.0,44.0,-100.00,West,265,12.0,22.0,76,0.00,,,0.00,0.000000,,2013-04-16 04:13:00,
2013-04-16 00:33:00,50.0,44.0,-100.00,West,272,13.0,20.0,81,0.00,,,-99.99,0.000000,,2013-04-16 04:33:00,
2013-04-16 00:42:00,50.0,44.0,-100.00,West,272,13.0,20.0,81,0.00,,,-99.99,0.000000,,2013-04-16 04:42:00,
2013-04-16 00:53:00,50.0,44.0,-100.00,West,272,13.0,20.0,81,0.00,,,-99.99,0.000000,,2013-04-16 04:53:00,
2013-04-16 01:03:00,50.0,44.0,-100.00,West,272,13.0,20.0,81,0.00,,,-99.99,0.000000,,2013-04-16 05:03:00,
2013-04-16 01:12:00,50.0,44.0,-100.00,West,272,13.0,20.0,81,0.00,,,-99.99,0.000000,,2013-04-16 05:12:00,
2013-04-16 01:42:00,49.0,44.0,-100.00,West,270,10.0,18.0,84,0.00,,,0.00,0.000000,,2013-04-16 05:42:00,
2013-04-16 01:52:00,49.0,44.0,-100.00,West,270,10.0,18.0,84,0.00,,,0.00,0.000000,,2013-04-16 05:52:00,
2013-04-16 02:02:00,49.0,44.0,-100.00,West,270,10.0,18.0,84,0.00,,,0.00,0.000000,,2013-04-16 06:02:00,
2013-04-16 02:12:00,49.0,44.0,-100.00,West,270,10.0,18.0,84,0.00,,,0.00,0.000000,,2013-04-16 06:12:00,
2013-04-16 02:32:00,49.0,45.0,-100.00,West,274,10.0,19.0,85,0.00,,,0.00,0.000000,,2013-04-16 06:32:00,
2013-04-16 02:42:00,49.0,45.0,-100.00,West,274,10.0,19.0,85,0.00,,,0.00,0.000000,,2013-04-16 06:42:00,
2013-04-16 02:52:00,49.0,45.0,-100.00,West,274,10.0,19.0,85,0.00,,,0.00,0.000000,,2013-04-16 06:52:00,
2013-04-16 03:02:00,49.0,45.0,-100.00,West,274,10.0,19.0,85,0.00,,,0.00,0.000000,,2013-04-16 07:02:00,
2013-04-16 03:12:00,49.0,45.0,-100.00,West,274,10.0,19.0,85,0.00,,,0.00,0.000000,,2013-04-16 07:12:00,
2013-04-16 03:42:00,48.0,44.0,-100.00,West,275,9.0,18.0,86,0.00,,,0.00,0.000000,,2013-04-16 07:42:00,
2013-04-16 03:53:00,48.0,44.0,-100.00,West,275,9.0,18.0,86,0.00,,,0.00,0.000000,,2013-04-16 07:53:00,
2013-04-16 04:02:00,48.0,44.0,-100.00,West,275,9.0,18.0,86,0.00,,,0.00,0.000000,,2013-04-16 08:02:00,
2013-04-16 04:12:00,48.0,44.0,-100.00,West,275,9.0,18.0,86,0.00,,,0.00,0.000000,,2013-04-16 08:12:00,
2013-04-16 04:42:00,48.0,45.0,-100.00,West,272,10.0,17.0,88,0.00,,,0.00,0.000000,,2013-04-16 08:42:00,
2013-04-16 04:52:00,48.0,45.0,-100.00,West,272,10.0,17.0,88,0.00,,,0.00,0.000000,,2013-04-16 08:52:00,
2013-04-16 05:02:00,48.0,45.0,-100.00,West,272,10.0,17.0,88,0.00,,,0.00,0.000000,,2013-04-16 09:02:00,
2013-04-16 05:12:00,48.0,45.0,-100.00,West,272,10.0,17.0,88,0.00,,,0.00,0.000000,,2013-04-16 09:12:00,
2013-04-16 05:43:00,48.0,45.0,-100.00,West,274,10.0,17.0,90,0.00,,,0.00,0.000000,,2013-04-16 09:43:00,
2013-04-16 05:53:00,48.0,45.0,-100.00,West,274,10.0,17.0,90,0.00,,,0.00,0.000000,,2013-04-16 09:53:00,
2013-04-16 06:03:00,48.0,45.0,-100.00,West,274,10.0,17.0,90,0.00,,,0.00,0.000000,,2013-04-16 10:03:00,
2013-04-16 06:13:00,48.0,45.0,-100.00,West,274,10.0,17.0,90,0.00,,,0.00,0.000000,,2013-04-16 10:13:00,
2013-04-16 06:43:00,48.0,45.0,-100.00,West,281,12.0,18.0,91,0.00,,,0.00,0.000000,,2013-04-16 10:43:00,
2013-04-16 06:53:00,48.0,45.0,-100.00,West,281,12.0,18.0,91,0.00,,,0.00,0.000000,,2013-04-16 10:53:00,
2013-04-16 07:03:00,48.0,45.0,-100.00,West,281,12.0,18.0,91,0.00,,,0.00,0.000000,,2013-04-16 11:03:00,
2013-04-16 07:12:00,48.0,45.0,-100.00,West,281,12.0,18.0,91,0.00,,,0.00,0.000000,,2013-04-16 11:12:00,
2013-04-16 07:32:00,48.0,46.0,-100.00,West,273,12.0,19.0,92,0.00,,,0.00,7.000000,,2013-04-16 11:32:00,
2013-04-16 07:42:00,48.0,46.0,-100.00,West,273,12.0,19.0,92,0.00,,,0.00,7.000000,,2013-04-16 11:42:00,
2013-04-16 07:53:00,48.0,46.0,-100.00,West,273,12.0,19.0,92,0.00,,,0.00,7.000000,,2013-04-16 11:53:00,
2013-04-16 08:02:00,48.0,46.0,-100.00,West,273,12.0,19.0,92,0.00,,,0.00,7.000000,,2013-04-16 12:02:00,
2013-04-16 08:12:00,48.0,46.0,-100.00,West,273,12.0,19.0,92,0.00,,,0.00,7.000000,,2013-04-16 12:12:00,
2013-04-16 08:42:00,50.0,48.0,-100.00,West,273,13.0,20.0,92,0.00,,,0.00,36.000000,,2013-04-16 12:42:00,
2013-04-16 08:52:00,50.0,48.0,-100.00,West,273,13.0,20.0,92,0.00,,,0.00,36.000000,,2013-04-16 12:52:00,
2013-04-16 09:02:00,50.0,48.0,-100.00,West,273,13.0,20.0,92,0.00,,,0.00,36.000000,,2013-04-16 13:02:00,
2013-04-16 09:12:00,50.0,48.0,-100.00,West,273,13.0,20.0,92,0.00,,,0.00,36.000000,,2013-04-16 13:12:00,
2013-04-16 09:42:00,52.0,50.0,-100.00,West,280,15.0,22.0,92,0.00,,,0.00,82.000000,,2013-04-16 13:42:00,
2013-04-16 09:52:00,52.0,50.0,-100.00,West,280,15.0,22.0,92,0.00,,,0.00,82.000000,,2013-04-16 13:52:00,
2013-04-16 10:02:00,52.0,50.0,-100.00,West,280,15.0,22.0,92,0.00,,,0.00,82.000000,,2013-04-16 14:02:00,
2013-04-16 10:12:00,52.0,50.0,-100.00,West,280,15.0,22.0,92,0.00,,,0.00,82.000000,,2013-04-16 14:12:00,
2013-04-16 10:42:00,53.0,50.0,-100.00,WNW,287,15.0,25.0,90,0.00,,,0.00,69.000000,,2013-04-16 14:42:00,
2013-04-16 10:52:00,53.0,50.0,-100.00,WNW,287,15.0,25.0,90,0.00,,,0.00,69.000000,,2013-04-16 14:52:00,
2013-04-16 11:02:00,53.0,50.0,-100.00,WNW,287,15.0,25.0,90,0.00,,,0.00,69.000000,,2013-04-16 15:02:00,
2013-04-16 11:12:00,53.0,50.0,-100.00,WNW,287,15.0,25.0,90,0.00,,,0.00,69.000000,,2013-04-16 15:12:00,
2013-04-16 11:43:00,52.0,49.0,-100.00,WNW,288,15.0,27.0,91,0.00,,,0.00,57.000000,,2013-04-16 15:43:00,
2013-04-16 11:53:00,52.0,49.0,-100.00,WNW,288,15.0,27.0,91,0.00,,,0.00,57.000000,,2013-04-16 15:53:00,
2013-04-16 12:03:00,52.0,49.0,-100.00,WNW,288,15.0,27.0,91,0.00,,,0.00,57.000000,,2013-04-16 16:03:00,
2013-04-16 12:13:00,52.0,49.0,-100.00,WNW,288,15.0,27.0,91,0.00,,,0.00,57.000000,,2013-04-16 16:13:00,
2013-04-16 12:42:00,54.0,52.0,-100.00,WNW,298,13.0,24.0,92,0.00,,,0.00,121.000000,,2013-04-16 16:42:00,
2013-04-16 12:53:00,54.0,52.0,-100.00,WNW,298,13.0,24.0,92,0.00,,,0.00,121.000000,,2013-04-16 16:53:00,
2013-04-16 13:02:00,54.0,52.0,-100.00,WNW,298,13.0,24.0,92,0.00,,,0.00,121.000000,,2013-04-16 17:02:00,
2013-04-16 13:12:00,54.0,52.0,-100.00,WNW,298,13.0,24.0,92,0.00,,,0.00,121.000000,,2013-04-16 17:12:00,
2013-04-16 13:43:00,58.0,54.0,-100.00,WNW,286,12.0,20.0,85,0.00,,,0.00,290.000000,,2013-04-16 17:43:00,
2013-04-16 13:53:00,58.0,54.0,-100.00,WNW,286,12.0,20.0,85,0.00,,,0.00,290.000000,,2013-04-16 17:53:00,
2013-04-16 14:02:00,58.0,54.0,-100.00,WNW,286,12.0,20.0,85,0.00,,,0.00,290.000000,,2013-04-16 18:02:00,
2013-04-16 14:12:00,58.0,54.0,-100.00,WNW,286,12.0,20.0,85,0.00,,,0.00,290.000000,,2013-04-16 18:12:00,
2013-04-16 14:43:00,58.0,53.0,-100.00,West,280,9.0,17.0,83,0.00,,,0.00,163.000000,,2013-04-16 18:43:00,
2013-04-16 14:52:00,58.0,53.0,-100.00,West,280,9.0,17.0,83,0.00,,,0.00,163.000000,,2013-04-16 18:52:00,
2013-04-16 15:02:00,58.0,53.0,-100.00,West,280,9.0,17.0,83,0.00,,,0.00,163.000000,,2013-04-16 19:02:00,
2013-04-16 15:12:00,58.0,53.0,-100.00,West,280,9.0,17.0,83,0.00,,,0.00,163.000000,,2013-04-16 19:12:00,
2013-04-16 15:43:00,65.0,55.0,-100.00,West,274,13.0,19.0,71,0.00,,,0.00,497.000000,,2013-04-16 19:43:00,
2013-04-16 15:52:00,65.0,55.0,-100.00,West,274,13.0,19.0,71,0.00,,,0.00,497.000000,,2013-04-16 19:52:00,
2013-04-16 16:02:00,65.0,55.0,-100.00,West,274,13.0,19.0,71,0.00,,,0.00,497.000000,,2013-04-16 20:02:00,
2013-04-16 16:13:00,65.0,55.0,-100.00,West,274,13.0,19.0,71,0.00,,,0.00,497.000000,,2013-04-16 20:13:00,
2013-04-16 16:32:00,63.0,54.0,-100.00,West,275,10.0,20.0,72,0.00,,,0.00,217.000000,,2013-04-16 20:32:00,
2013-04-16 16:42:00,63.0,54.0,-100.00,West,275,10.0,20.0,72,0.00,,,0.00,217.000000,,2013-04-16 20:42:00,
2013-04-16 16:52:00,63.0,54.0,-100.00,West,275,10.0,20.0,72,0.00,,,0.00,217.000000,,2013-04-16 20:52:00,
2013-04-16 17:02:00,63.0,54.0,-100.00,West,275,10.0,20.0,72,0.00,,,0.00,217.000000,,2013-04-16 21:02:00,
2013-04-16 17:12:00,63.0,54.0,-100.00,West,275,10.0,20.0,72,0.00,,,0.00,217.000000,,2013-04-16 21:12:00,
2013-04-16 17:43:00,63.0,53.0,-100.00,WNW,289,11.0,17.0,71,0.00,,,0.00,109.000000,,2013-04-16 21:43:00,
2013-04-16 17:53:00,63.0,53.0,-100.00,WNW,289,11.0,17.0,71,0.00,,,0.00,109.000000,,2013-04-16 21:53:00,
2013-04-16 18:03:00,63.0,53.0,-100.00,WNW,289,11.0,17.0,71,0.00,,,0.00,109.000000,,2013-04-16 22:03:00,
2013-04-16 18:13:00,63.0,53.0,-100.00,WNW,289,11.0,17.0,71,0.00,,,0.00,109.000000,,2013-04-16 22:13:00,
2013-04-16 18:43:00,64.0,53.0,-100.00,NW,304,7.0,16.0,67,0.00,,,0.00,190.000000,,2013-04-16 22:43:00,
2013-04-16 18:52:00,64.0,53.0,-100.00,NW,304,7.0,16.0,67,0.00,,,0.00,190.000000,,2013-04-16 22:52:00,
2013-04-16 19:02:00,64.0,53.0,-100.00,NW,304,7.0,16.0,67,0.00,,,0.00,190.000000,,2013-04-16 23:02:00,
2013-04-16 19:12:00,64.0,53.0,-100.00,NW,304,7.0,16.0,67,0.00,,,0.00,190.000000,,2013-04-16 23:12:00,
2013-04-16 19:32:00,62.0,54.0,-100.00,WNW,293,7.0,12.0,74,0.00,,,0.00,21.000000,,2013-04-16 23:32:00,
2013-04-16 19:43:00,62.0,54.0,-100.00,WNW,293,7.0,12.0,74,0.00,,,0.00,21.000000,,2013-04-16 23:43:00,
2013-04-16 19:52:00,62.0,54.0,-100.00,WNW,293,7.0,12.0,74,0.00,,,0.00,21.000000,,2013-04-16 23:52:00,
2013-04-16 20:02:00,62.0,54.0,-100.00,WNW,293,7.0,12.0,74,0.00,,,0.00,21.000000,,2013-04-17 00:02:00,
2013-04-16 20:12:00,62.0,54.0,-100.00,WNW,293,7.0,12.0,74,0.00,,,0.00,21.000000,,2013-04-17 00:12:00,
2013-04-16 20:42:00,62.0,55.0,-100.00,NW,306,7.0,11.0,77,0.00,,,0.00,3.000000,,2013-04-17 00:42:00,
2013-04-16 20:52:00,62.0,55.0,-100.00,NW,306,7.0,11.0,77,0.00,,,0.00,3.000000,,2013-04-17 00:52:00,
2013-04-16 21:02:00,62.0,55.0,-100.00,NW,306,7.0,11.0,77,0.00,,,0.00,3.000000,,2013-04-17 01:02:00,
2013-04-16 21:12:00,62.0,55.0,-100.00,NW,306,7.0,11.0,77,0.00,,,0.00,3.000000,,2013-04-17 01:12:00,
2013-04-16 21:32:00,62.0,54.0,-100.00,NNW,332,8.0,12.0,76,0.02,,,0.02,0.000000,,2013-04-17 01:32:00,
2013-04-16 21:42:00,62.0,54.0,-100.00,NNW,332,8.0,12.0,76,0.02,,,0.02,0.000000,,2013-04-17 01:42:00,
2013-04-16 21:52:00,62.0,54.0,-100.00,NNW,332,8.0,12.0,76,0.02,,,0.02,0.000000,,2013-04-17 01:52:00,
2013-04-16 22:02:00,62.0,54.0,-100.00,NNW,332,8.0,12.0,76,0.02,,,0.02,0.000000,,2013-04-17 02:02:00,
2013-04-16 22:12:00,62.0,54.0,-100.00,NNW,332,8.0,12.0,76,0.02,,,0.02,0.000000,,2013-04-17 02:12:00,
2013-04-16 22:42:00,57.0,55.0,-100.00,NE,42,8.0,21.0,92,0.01,,,0.03,0.000000,,2013-04-17 02:42:00,
2013-04-16 22:52:00,57.0,55.0,-100.00,NE,42,8.0,21.0,92,0.01,,,0.03,0.000000,,2013-04-17 02:52:00,
2013-04-16 23:02:00,57.0,55.0,-100.00,NE,42,8.0,21.0,92,0.01,,,0.03,0.000000,,2013-04-17 03:02:00,
2013-04-16 23:12:00,57.0,55.0,-100.00,NE,42,8.0,21.0,92,0.01,,,0.03,0.000000,,2013-04-17 03:12:00,
2013-04-16 23:43:00,54.0,51.0,-100.00,NNE,24,8.0,22.0,90,0.14,,,0.17,0.000000,,2013-04-17 03:43:00,
2013-04-16 23:53:00,54.0,51.0,-100.00,NNE,24,8.0,22.0,90,0.14,,,0.17,0.000000,,2013-04-17 03:53:00,